[[[{"header":{"parameterUnit":"kt","parameterCategory":2,"dx":1,"dy":1,"la1":30.253999710083008,"la2":30.299108505249023,"lo1":-89.0895004272461,"lo2":-89.04439544677734,"nx":28,"ny":28,"refTime":"2022-09-27T21:00:00:Z","depth":0,"parameterNumber":1,"parameterNumberName":"U-component_of_WINDS"},"data":[-5.5084,-5.5278,-5.5264,-5.5477,-5.55,-5.5644,-5.5691,-5.5749,-5.5791,-5.5958,-5.6052,-5.6056,-5.6092,-5.6198,-5.6298,-5.6297,-5.6343,-5.642,-5.6407,-5.6071,-5.6024,-5.5979,-5.5934,-5.6429,-5.6429,-5.6759,-5.6762,-5.6765,-5.4835,-5.4861,-5.497,-5.5066,-5.5159,-5.5074,-5.5143,-5.5227,-5.5357,-5.541,-5.5502,-5.5648,-5.5761,-5.577,-5.5876,-5.5965,-5.5933,-5.5995,-5.5991,-5.5999,-5.5637,-5.559,-5.6019,-5.6019,-5.6019,-5.6019,-5.6019,-5.6019,-5.4379,-5.4496,-5.4547,-5.4665,-5.4709,-5.4773,-5.4881,-5.4885,-5.4991,-5.5101,-5.5062,-5.5209,-5.5259,-5.538,-5.5417,-5.5529,-5.5458,-5.5523,-5.554,-5.5558,-5.5582,-5.5113,-5.5546,-5.5544,-5.5543,-5.5542,-5.5541,0,-5.4043,-5.4024,-5.4128,-5.4228,-5.4313,-5.4389,-5.4456,-5.4522,-5.4475,-5.4565,-5.4693,-5.4764,-5.4903,-5.5022,-5.5118,-5.5143,-5.5069,-5.5057,-5.5102,-5.5128,-5.5136,-5.5138,-5.4554,-5.5047,-5.5042,-5.5039,-5.5037,-5.5035,-5.3587,-5.3723,-5.377,-5.3844,-5.3878,-5.3999,-5.4069,-5.4017,-5.4093,-5.4167,-5.4272,-5.4389,-5.4482,-5.4688,-5.4691,-5.4796,-5.4762,-5.4952,-5.4777,-5.4793,-5.477,-5.4765,-5.4779,-5.4989,-5.4995,-5.5,-5.5004,0,-5.3331,-5.3309,-5.3516,-5.3548,-5.356,-5.3707,-5.3734,-5.3847,-5.3838,-5.3993,-5.4026,-5.4014,-5.414,-5.4112,-5.425,-5.4232,-5.4471,-5.4432,-5.4453,-5.4446,-5.4617,-5.4603,-5.5168,-5.524,-5.4721,-5.4726,-5.473,0,-5.2936,-5.3117,-5.3073,-5.3196,-5.3394,-5.3339,-5.3537,-5.355,-5.3594,-5.3715,-5.3624,-5.374,-5.3686,-5.3797,-5.3771,-5.396,-5.3985,-5.3984,-5.3977,-5.3997,-5.3998,-5.4041,-5.402,-5.3947,-5.3944,-5.3942,-5.394,0,-5.2544,-5.2732,-5.2929,-5.2968,-5.3022,-5.3116,-5.3142,-5.3191,-5.326,-5.3344,-5.3388,-5.3489,-5.3547,-5.3625,-5.3592,-5.3475,-5.3822,-5.3654,-5.3822,-5.3823,-5.3906,-5.3903,-5.4403,-5.3936,-5.3935,-5.3934,-5.3933,0,-5.2223,-5.231,-5.2599,-5.2641,-5.2693,-5.2822,-5.292,-5.3024,-5.3082,-5.3074,-5.314,-5.3078,-5.3239,-5.3075,-5.3297,-5.3155,-5.3216,-5.3229,-5.324,-5.3259,-5.3078,-5.3371,-5.3846,-5.3898,-5.3267,-5.3262,-5.3257,0,-5.1782,-5.2067,-5.2023,-5.2298,-5.2426,-5.2317,-5.2458,-5.2513,-5.2515,-5.2623,-5.2622,-5.2747,-5.2619,-5.2655,-5.2767,-5.2774,-5.2958,-5.2747,-5.2908,-5.2914,-5.2901,-5.3336,-5.3417,-5.3744,-5.3185,-5.3193,-5.3198,0,-5.1439,-5.1504,-5.1557,-5.1601,-5.1665,-5.1772,-5.1935,-5.2046,-5.2121,-5.2191,-5.2329,-5.25,-5.2411,-5.2472,-5.2432,-5.2552,-5.2832,-5.2441,-5.2442,-5.2516,-5.3146,-5.3222,-5.3277,-5.2779,-5.2787,-5.2794,-5.3141,0,-5.0968,-5.1107,-5.1246,-5.1346,-5.1424,-5.1594,-5.1567,-5.1652,-5.1606,-5.1605,-5.1803,-5.1843,-5.1958,-5.2011,-5.1969,-5.225,-5.22,-5.2105,-5.1949,-5.2232,-5.2347,-5.2393,-5.178,-5.1775,-5.1771,-5.1768,0,0,-5.0554,-5.0754,-5.0702,-5.086,-5.0923,-5.0809,-5.0994,-5.1041,-5.1143,-5.1189,-5.1099,-5.1351,-5.1388,-5.1633,-5.1719,-5.1764,-5.1813,-5.1716,-5.2096,-5.2133,-5.2167,-5.2289,-5.2338,-5.1761,-5.1759,-5.1758,-5.1757,0,-5.0379,-5.0417,-5.06,-5.0647,-5.0716,-5.0705,-5.0749,-5.0798,-5.0806,-5.1,-5.0906,-5.1021,-5.1224,-5.1277,-5.133,-5.1683,-5.1608,-5.1719,-5.192,-5.2056,-5.2099,-5.2136,-5.2265,-5.2311,-5.1747,-5.1748,-5.1748,0,-5.0039,-5.0075,-5.016,-5.0298,-5.0342,-5.0477,-5.0304,-5.0454,-5.0554,-5.0425,-5.062,-5.064,-5.0707,-5.0941,-5.1045,-5.0968,-5.1424,-5.1274,-5.1299,-5.1312,-5.1443,-5.1494,-5.1539,-5.0947,-5.0944,-5.0942,0,0,-4.9892,-5.0021,-5.0044,-5.0258,-5.0292,-5.0281,-5.035,-5.0313,-5.0376,-5.0402,-5.0427,-5.0491,-5.0608,-5.0687,-5.0795,-5.1055,-5.1067,-5.1177,-5.1215,-5.1246,-5.1275,-5.1415,-5.1465,-5.0932,-5.0931,-5.0931,0,0,-4.9821,-4.9858,-4.9801,-5.0046,-5.0109,-5.0148,-5.028,-5.0212,-5.0307,-5.0286,-5.0231,-5.0246,-5.0464,-5.0488,-5.0355,-5.074,-5.0585,-5.0616,-5.0718,-5.0766,-5.0803,-5.0795,-5.0188,0,0,0,0,0,-4.963,-4.9852,-4.9801,-4.9838,-5.0013,-5.0175,-5.0198,-5.0158,-5.0049,-5.0154,-5.0163,-5.0077,-5.0405,-5.0286,-5.0324,-5.0474,-5.0801,-5.0824,-5.0846,-5.1039,-5.1088,-5.113,0,0,0,0,0,0,-4.9644,-4.969,-4.9795,-4.9844,-4.9883,-5.0167,-4.9974,-4.9969,-5.0037,-5.0017,-5.0078,-5.0079,-5.0049,-5.0264,-5.0299,-5.0443,-5.0176,-5.081,-5.083,-5.0848,-5.1056,-5.1096,-5.1131,0,0,0,0,0,-4.9655,-4.9692,-4.9984,-4.984,-4.9874,-4.9874,-4.9965,-4.996,-5.0011,-5.0027,-5.0026,-4.9976,-5.0054,-5.008,-5.0284,-5.0428,-5.0151,-5.0165,-5.0823,-5.0839,-5.0852,-5.1076,0,0,0,0,0,0,-4.9664,-4.9688,-4.9989,-4.9998,-4.9754,-4.9857,-4.9872,-4.9952,-5.0016,-5.0017,-4.9921,-4.9906,-5.006,-5.0079,-5.0101,-5.0425,-5.0131,-5.0145,-5.0153,-5.0835,-5.0847,-5.0858,0,0,0,0,0,0,-4.9668,-4.9697,-4.9994,-4.9887,-4.9883,-4.9842,-4.9856,-5.0023,-5.0018,-4.9906,-4.9895,-4.9914,-5.0028,-5.008,-5.0096,-5.0359,-5.0116,-5.0129,-5.0138,-5.0144,-5.0845,-5.0854,0,0,0,0,0,0,-4.9679,-4.9704,-4.9884,-4.9882,-4.9878,-4.9973,-4.9989,-5.0171,-4.9926,-4.9905,-4.9903,-4.9893,-5.0032,-5.0047,-5.0094,-5.0351,-5.0357,-5.0117,-5.0125,-5.0132,-5.0136,0,0,0,0,0,0,0,-4.9689,-4.9535,-4.9937,-4.9877,-4.9873,-5.008,-5.0082,-5.0084,-4.9924,-4.9915,-4.9906,-4.9897,-5.0043,-5.0057,-5.0071,-5.0344,0,0,-5.0115,-5.0122,0,0,0,0,0,0,0,0,-4.9523,-4.9532,-4.9938,-4.9939,-4.9941,-5.008,-5.0082,-5.0084,-4.9922,-4.9915,-4.9908,-4.9901,-5.0047,-5.0058,-5.007,0,0,0,0,0,0,0,0,0,0,0,0,0,0,0,-4.9938,-4.9939,0,-5.008,-5.0082,-5.0083,-4.9921,-4.9915,-4.9909,-4.9903,-5.005,-5.0059,-5.0069,0,0,0,0,0,0,0,0,0,0,0,0,0,0,0,0,0,0,0,0,0,0,0,0,0,0,0,0,0,0,0,0,0,0,0,0,0,0,0,0,0,0,0,0,0,0,0,0,0,0,0,0,0,0,0,0,0,0,0,0,0,0,0,0,0,0,0,0,0]}],[{"header":{"parameterUnit":"kt","parameterCategory":2,"dx":1,"dy":1,"la1":30.253999710083008,"la2":30.299108505249023,"lo1":-89.0895004272461,"lo2":-89.04439544677734,"nx":28,"ny":28,"refTime":"2022-09-27T21:00:00:Z","depth":0,"parameterNumber":2,"parameterNumberName":"V-component_of_WINDS"},"data":[-17.4707,-17.5008,-17.5002,-17.534,-17.539,-17.5618,-17.5696,-17.5795,-17.5871,-17.6136,-17.6286,-17.6304,-17.6371,-17.6543,-17.6701,-17.6704,-17.6771,-17.6883,-17.6867,-17.6376,-17.6307,-17.6241,-17.6171,-17.6899,-17.69,-17.7377,-17.7381,-17.7385,-17.4345,-17.44,-17.4578,-17.4745,-17.4895,-17.4783,-17.4903,-17.5035,-17.524,-17.5335,-17.5483,-17.5713,-17.5893,-17.5921,-17.6089,-17.6223,-17.6177,-17.6269,-17.6258,-17.627,-17.5745,-17.567,-17.6304,-17.6304,-17.6304,-17.6304,-17.6304,-17.6303,-17.3684,-17.3866,-17.3963,-17.4156,-17.4237,-17.4347,-17.4516,-17.4537,-17.4706,-17.4887,-17.484,-17.5069,-17.5158,-17.5354,-17.5416,-17.559,-17.5484,-17.5581,-17.5605,-17.5629,-17.5659,-17.497,-17.5618,-17.5616,-17.5614,-17.5613,-17.5611,0,-17.3197,-17.318,-17.335,-17.3519,-17.3657,-17.3786,-17.39,-17.4004,-17.3955,-17.4097,-17.43,-17.4414,-17.4638,-17.4823,-17.4978,-17.5021,-17.4912,-17.49,-17.4966,-17.4992,-17.4996,-17.4996,-17.4139,-17.488,-17.4874,-17.487,-17.4866,-17.4864,-17.2529,-17.2743,-17.2839,-17.296,-17.3021,-17.3215,-17.3328,-17.3269,-17.3391,-17.3519,-17.3679,-17.3866,-17.4013,-17.4334,-17.4348,-17.4513,-17.446,-17.4745,-17.4484,-17.4501,-17.4463,-17.4451,-17.4471,-17.4796,-17.4805,-17.4812,-17.4818,0,-17.2153,-17.2139,-17.2466,-17.2539,-17.2563,-17.2788,-17.2847,-17.3023,-17.3022,-17.3263,-17.3315,-17.3311,-17.3509,-17.3477,-17.3694,-17.3671,-17.4031,-17.3977,-17.4,-17.3987,-17.4237,-17.4214,-17.5058,-17.5164,-17.441,-17.4417,-17.4423,0,-17.1576,-17.1857,-17.1819,-17.201,-17.2318,-17.2253,-17.2559,-17.2588,-17.2665,-17.2854,-17.2728,-17.2907,-17.2838,-17.3011,-17.2977,-17.3265,-17.3306,-17.3304,-17.3292,-17.3316,-17.3317,-17.3376,-17.334,-17.3256,-17.3252,-17.3248,-17.3245,0,-17.0988,-17.1297,-17.1607,-17.1674,-17.1779,-17.1924,-17.1974,-17.2059,-17.217,-17.2306,-17.2376,-17.2539,-17.2628,-17.2753,-17.2708,-17.2533,-17.3061,-17.281,-17.3058,-17.306,-17.3176,-17.317,-17.3926,-17.324,-17.3238,-17.3237,-17.3235,0,-17.0518,-17.0665,-17.1117,-17.12,-17.1283,-17.1486,-17.1644,-17.181,-17.1909,-17.1902,-17.2008,-17.1919,-17.217,-17.1923,-17.2266,-17.205,-17.2144,-17.2165,-17.2182,-17.2202,-17.1926,-17.2356,-17.3081,-17.3155,-17.222,-17.2212,-17.2204,0,-16.9849,-17.0301,-17.0248,-17.0677,-17.0881,-17.0726,-17.0949,-17.1042,-17.1051,-17.122,-17.1227,-17.1421,-17.123,-17.1286,-17.146,-17.1474,-17.1755,-17.1435,-17.1674,-17.1683,-17.1653,-17.232,-17.2436,-17.2926,-17.2096,-17.2107,-17.2115,0,-16.9327,-16.9456,-16.9537,-16.961,-16.9726,-16.9895,-17.0152,-17.0331,-17.0447,-17.0565,-17.0776,-17.1047,-17.0913,-17.1007,-17.0951,-17.1134,-17.1562,-17.0965,-17.0966,-17.1073,-17.2038,-17.2147,-17.223,-17.1483,-17.1496,-17.1506,-17.2029,0,-16.8619,-16.8844,-16.9061,-16.923,-16.9356,-16.9623,-16.9593,-16.9728,-16.9663,-16.9666,-16.9975,-17.0041,-17.022,-17.0305,-17.0242,-17.0674,-17.0596,-17.0451,-17.0207,-17.0645,-17.0816,-17.0886,-16.9955,-16.9947,-16.9941,-16.9936,0,0,-16.798,-16.8302,-16.8236,-16.8485,-16.8587,-16.8423,-16.871,-16.8789,-16.8954,-16.9027,-16.8891,-16.9284,-16.9343,-16.9721,-16.9856,-16.9929,-17.0001,-16.985,-17.0437,-17.0493,-17.0545,-17.0729,-17.0802,-16.9925,-16.9922,-16.992,-16.9918,0,-16.7716,-16.7789,-16.8077,-16.8157,-16.8274,-16.8264,-16.8333,-16.8418,-16.8433,-16.8737,-16.8593,-16.8774,-16.9091,-16.9172,-16.9255,-16.9804,-16.9683,-16.9861,-17.0167,-17.0376,-17.044,-17.0497,-17.0691,-17.0762,-16.9903,-16.9904,-16.9905,0,-16.7196,-16.7262,-16.7398,-16.7626,-16.77,-16.7913,-16.7651,-16.7888,-16.8044,-16.7847,-16.8151,-16.8183,-16.8289,-16.8652,-16.8813,-16.8693,-16.9395,-16.9168,-16.9206,-16.9223,-16.9423,-16.95,-16.9569,-16.866,-16.8656,-16.8652,0,0,-16.6971,-16.718,-16.723,-16.7567,-16.7624,-16.7613,-16.7723,-16.7669,-16.7771,-16.7813,-16.7851,-16.7952,-16.8134,-16.8256,-16.8425,-16.8829,-16.8843,-16.9016,-16.9075,-16.9123,-16.9166,-16.9379,-16.9455,-16.8636,-16.8636,-16.8635,0,0,-16.6862,-16.6935,-16.6852,-16.724,-16.7344,-16.7413,-16.7618,-16.7516,-16.7667,-16.7632,-16.7548,-16.7572,-16.791,-16.7946,-16.7739,-16.8337,-16.8096,-16.8145,-16.8301,-16.8374,-16.8432,-16.8416,-16.7477,0,0,0,0,0,-16.6576,-16.6925,-16.685,-16.6911,-16.7197,-16.7455,-16.7491,-16.7432,-16.7263,-16.7427,-16.7443,-16.7307,-16.7817,-16.7632,-16.7691,-16.7922,-16.8433,-16.8469,-16.8503,-16.8799,-16.8876,-16.8941,0,0,0,0,0,0,-16.66,-16.6675,-16.684,-16.6925,-16.6989,-16.7442,-16.7143,-16.7136,-16.7244,-16.7214,-16.7308,-16.731,-16.7262,-16.7597,-16.7651,-16.7872,-16.7458,-16.8447,-16.8478,-16.8505,-16.8825,-16.8888,-16.8943,0,0,0,0,0,-16.6618,-16.6678,-16.7153,-16.692,-16.6975,-16.6981,-16.7129,-16.7121,-16.7203,-16.7229,-16.7226,-16.715,-16.727,-16.7311,-16.7629,-16.7849,-16.742,-16.744,-16.8467,-16.8491,-16.8513,-16.8856,0,0,0,0,0,0,-16.6632,-16.6671,-16.7163,-16.7177,-16.6784,-16.6954,-16.6979,-16.7109,-16.7209,-16.7211,-16.7064,-16.704,-16.728,-16.731,-16.7342,-16.7845,-16.7389,-16.741,-16.7423,-16.8485,-16.8504,-16.8521,0,0,0,0,0,0,-16.6638,-16.6685,-16.717,-16.7002,-16.6997,-16.693,-16.6952,-16.7213,-16.7212,-16.7038,-16.7021,-16.7052,-16.7229,-16.7311,-16.7335,-16.7745,-16.7365,-16.7385,-16.7399,-16.7408,-16.8501,-16.8516,0,0,0,0,0,0,-16.6656,-16.6696,-16.6998,-16.6994,-16.6988,-16.7145,-16.7158,-16.7453,-16.7074,-16.7036,-16.7037,-16.7021,-16.7234,-16.7257,-16.7332,-16.7732,-16.7741,-16.7366,-16.738,-16.7389,-16.7396,0,0,0,0,0,0,0,-16.6671,-16.642,-16.7078,-16.6987,-16.6982,-16.731,-16.7314,-16.7318,-16.707,-16.7055,-16.7041,-16.7028,-16.7252,-16.7274,-16.7296,-16.7721,0,0,-16.7364,-16.7374,0,0,0,0,0,0,0,0,-16.6402,-16.6416,-16.7078,-16.7081,-16.7084,-16.7311,-16.7314,-16.7317,-16.7067,-16.7056,-16.7044,-16.7033,-16.7258,-16.7275,-16.7293,0,0,0,0,0,0,0,0,0,0,0,0,0,0,0,-16.7079,-16.7081,0,-16.7311,-16.7314,-16.7317,-16.7066,-16.7056,-16.7047,-16.7038,-16.7263,-16.7277,-16.7292,0,0,0,0,0,0,0,0,0,0,0,0,0,0,0,0,0,0,0,0,0,0,0,0,0,0,0,0,0,0,0,0,0,0,0,0,0,0,0,0,0,0,0,0,0,0,0,0,0,0,0,0,0,0,0,0,0,0,0,0,0,0,0,0,0,0,0,0,0]}]]]